Regional Weather Roundup
Issued by NWS

Home | Current Version | Previous Version | Graphics & Text | Print | Product List | Glossary On
Versions: 1 2 3 4 5 6 7 8 9 10 11 12 13 14 15 16 17 18 19 20 21 22 23 24 25 26 27 28 29 30 31 32 33 34 35 36 37 38 39 40 41 42 43 44 45 46 47 48 49 50
000
ASUS45 KTFX 091110
RWRMT
MONTANA REGIONAL WEATHER ROUNDUP
NATIONAL WEATHER SERVICE GREAT FALLS MT
400 AM MST TUE FEB 09 2016

NOTE: "FAIR" INDICATES FEW OR NO CLOUDS BELOW 12000 FEET WITH NO
SIGNIFICANT WEATHER AND/OR OBSTRUCTIONS TO VISIBILITY.

MTZ001>007-043-091200-
WEST OF THE DIVIDE

CITY           SKY/WX    TMP DP  RH WIND       PRES   REMARKS
KALISPELL      CLEAR     20  19  96 CALM      30.52F FOG
MISSOULA       CLEAR     25  22  88 E3        30.55F
BUTTE          CLOUDY    12  10  92 S5        30.49F
MULLAN PASS    CLEAR     36  30  79 S7        30.47F WCI  30
ANACONDA         N/A     28  25  86 SW3       30.49F
DEER LODGE       N/A     27  27 100 W3        30.51S
HAMILTON         N/A     27  25  93 CALM      30.52F
LIBBY            N/A     19  19 100 CALM      30.55S
PLAINS           N/A     26  21  81 CALM      30.51F
$$

MTZ008-052>055-091200-
SOUTHWEST MONTANA

CITY           SKY/WX    TMP DP  RH WIND       PRES   REMARKS
BOZEMAN        CLOUDY    21  19  92 CALM      30.46F
DILLON         CLOUDY    30  23  75 SW12      30.48S WCI  20
ENNIS          CLEAR     28  23  80 VRB6      30.54S WCI  22
TWIN BRIDGES     N/A     25  19  77 E7        30.41S WCI  17
$$

MTZ009-010-012-014-046-048-049-054-091200-
EAST SLOPES AND CENTRAL MONTANA

CITY           SKY/WX    TMP DP  RH WIND       PRES   REMARKS
CUT BANK       CLEAR     40  29  64 NW14      30.28F
GREAT FALLS    CLEAR     41  29  62 SW15      30.31F
MALMSTROM AFB  CLOUDY    38  29  71 SW15      30.32S WCI  29
HELENA         CLOUDY    31  28  89 W3        30.42S
CHOTEAU          N/A     48  23  37 SW8G14    30.32S
CONRAD           N/A     44  28  53 SE6       30.27S
$$

MTZ011-013-016-021-045-047-050-051-091200-
NORTH CENTRAL MONTANA

CITY           SKY/WX    TMP DP  RH WIND       PRES   REMARKS
HAVRE          PTCLDY    33  28  81 SW13      30.26F WCI  24
LEWISTOWN      CLOUDY    37  25  61 W9        30.31S WCI  30
N BAR RANCH      N/A     45  25  45 NW16      30.28F
CHINOOK          N/A     25  23  93 CALM      30.27R
$$

MTZ017>020-022>027-061-062-091200-
NORTHEAST MONTANA

CITY           SKY/WX    TMP DP  RH WIND       PRES   REMARKS
GLASGOW        CLOUDY    27  22  81 W7        30.24F WCI  19
JORDAN           N/A     30  27  88 W7        30.23F WCI  23
SIDNEY         CLOUDY    28  19  69 S3        30.19F
WOLF POINT     CLOUDY    30  24  78 W6        30.23F WCI  24
MALTA            N/A    N/A N/A N/A MISG      30.19
PLENTYWOOD       N/A     30  25  80 NW13      30.18R WCI  20
POPLAR           N/A     27  21  80 W7        30.23S WCI  19
SCOBEY           N/A     31  19  61 W5        30.16F
$$

MTZ028>42-056>058-091200-
SOUTHCENTRAL AND SOUTHEAST MONTANA

CITY           SKY/WX    TMP DP  RH WIND       PRES   REMARKS
BAKER          CLOUDY    25  17  72 W3        30.21R
BILLINGS       CLEAR     34  24  67 VRB3      30.30F
LIVINGSTON     CLOUDY    46  24  42 SW22G32   30.39F
MILES CITY     CLOUDY    31  26  82 W12       30.24F WCI  22
EKALAKA          N/A     32  23  69 W5        30.17S
FORSYTH          N/A     34  27  75 W8        30.27S WCI  27
LAUREL           N/A     32  19  58 S8        30.26F WCI  25
ROUNDUP          N/A     36  24  62 CALM      30.17F
$$

REGIONAL REPORTS...DAKOTAS

CITY           SKY/WX    TMP DP  RH WIND       PRES   REMARKS
WILLISTON      CLOUDY    27  22  81 S3        30.18F
MINOT          CLOUDY    26   9  48 SW10      30.21F WCI  16
DICKINSON      CLOUDY    24  17  74 SE6       30.18S WCI  17
BEACH          CLOUDY    30  16  55 W13       30.20F WCI  20
CROSBY         CLOUDY    23  23 100 S6        30.21R WCI  16
TIOGA          CLOUDY    21  21 100 S8        30.23S WCI  12
WATFORD CITY   MOCLDY    25  19  80 S5        30.19F
BISMARCK       CLOUDY    25  12  58 W5        30.26F
GRAND FORKS    CLOUDY    11   3  70 N15       30.25S WCI  -5
FARGO          PTCLDY     4  -2  76 NW10      30.25S WCI -11
BUFFALO SD       N/A     25  14  63 W3        30.14S
RAPID CITY     PTCLDY    23  14  68 N6        30.22S WCI  16
$$

REGIONAL REPORTS...WYOMING/IDAHO/WASHINGTON

CITY           SKY/WX    TMP DP  RH WIND       PRES   REMARKS
GILLETTE       CLEAR     33  27  78 W13       30.26S WCI  24
SHERIDAN       CLEAR     32  26  78 W6        30.29S WCI  26
BUFFALO WY     CLEAR     40  27  59 N7        30.29S
CODY           CLOUDY    28  19  69 CALM      30.34S
YELLOWSTONE LA   N/A     14  12  92 CALM      30.57R
IDAHO FALLS    FOG       15  12  88 N3        30.62S VSB 1/4
SALMON         CLOUDY     9   7  92 CALM      30.65F
BOISE          PTCLDY    29  25  85 SE3       30.61F
SPOKANE        PTCLDY    33  28  81 NE8       30.48F WCI  26
$$

REGIONAL REPORTS...ALBERTA

CITY           SKY/WX    TMP DP  RH WIND       PRES   REMARKS
EDMONTON       CLEAR     37  27  65 SW7       30.13F
CALGARY        PTCLDY    46  21  36 NW7       30.23F
LETHBRIDGE     CLEAR     41  28  60 W13       30.25F
MEDICINE HAT   PTCLDY    30  28  93 SW8       30.22F WCI  23
WATERTON GATE    N/A     45  28  53 SW29G47     N/A
CARDSTON         N/A     50  21  32 W14G21      N/A
MILK RIVER       N/A     37  27  65 W14         N/A  WCI  29
$$

REGIONAL REPORTS...SASKATCHEWAN

CITY           SKY/WX    TMP DP  RH WIND       PRES   REMARKS
SWIFT CURRENT  CLOUDY    32  27  80 W7        30.20S WCI  26
REGINA         MOCLDY    21  19  93 NW3       30.20R
SASKATOON      CLOUDY    23  19  86 SW3       30.23F
CYPRESS HILLS    N/A     36  21  55 W3          N/A
ROCKGLEN         N/A     30  25  80 NW9         N/A  WCI  22
ASSINIBOIA       N/A     36  30  80 W3          N/A
$$



USA.gov is the U.S. government's official web portal to all federal, state and local government web resources and services.